Naples, FL

8:31 PM EDT on June 25, 2017 (GMT -0400)
Naples Municipal

Weather History for KAPF - November, 2013

Change the Weather History Date:

Wednesday, November 13, 2013

  Actual Average Record
Temperature  
Mean Temperature 69 °F 72 °F  
Max Temperature 75 °F 82 °F 91 °F (1948)
Min Temperature 62 °F 63 °F 42 °F (1968)
Degree Days  
Heating Degree Days 0 0  
Month to date heating degree days 0 0  
Since 1 July heating degree days 0 1  
Cooling Degree Days 4 8  
Month to date cooling degree days 149 116  
Year to date cooling degree days 3790 3711  
Growing Degree Days 18 (Base 50)    
Moisture  
Dew Point 59 °F    
Average Humidity 71    
Maximum Humidity 84    
Minimum Humidity 58    
Precipitation  
Precipitation 0.00 in 0.06 in 1.03 in (1945)
Month to date precipitation T 1.11  
Year to date precipitation 48.22 49.51  
Snow  
Snow 0.00 in - - ()
Month to date snowfall 0.0  
Since 1 July snowfall 0.0  
Since 1 September snowfall 0.0  
Snow Depth 0.00 in    
Sea Level Pressure  
Sea Level Pressure 30.10 in    
Wind  
Wind Speed 15 mph (NE)    
Max Wind Speed 26 mph    
Max Gust Speed 37 mph    
Visibility 10 miles    
Events      
T = Trace of Precipitation, MM = Missing Value Source: NWS Daily Summary

Daily Weather History Graph

Daily Weather History Graph

Search for Another Location

Airport or City:

Trip Planner

Search our weather history database for the weather conditions in past years. The results will help you decide how hot, cold, wet, or windy it might be!

Date:

Astronomy

Nov. 13, 2013 Rise Set
Actual Time 6:44 AM EST 5:38 PM EST
Civil Twilight 6:20 AM EST 6:02 PM EST
Nautical Twilight 5:52 AM EST 6:30 PM EST
Astronomical Twilight 5:24 AM EST 6:57 PM EST
Moon 3:06 PM EST (11/13) 2:57 AM EST (11/13)
Length of Visible Light 11h 42m
Length of Day
10h 53m
Waxing Gibbous, 84% of the Moon is Illuminated
Nov 13
Waxing Gibbous
Nov 17
Full
Nov 25
Last Quarter
Dec 2
New
Dec 9
First Quarter

Hourly Weather History & Observations

Time (EST) Temp. Dew Point Humidity Pressure Visibility Wind Dir Wind Speed Gust Speed Precip Events Conditions
12:53 AM 73.0 °F 66.9 °F 81% 30.04 in 10.0 mi North 4.6 mph - N/A   Clear
1:53 AM 72.0 °F 66.9 °F 84% 30.02 in 10.0 mi NNE 9.2 mph - N/A   Clear
2:36 AM 71.6 °F 68.0 °F 88% 30.02 in 10.0 mi NNE 9.2 mph - N/A   Mostly Cloudy
2:53 AM 72.0 °F 66.9 °F 84% 30.03 in 10.0 mi NNE 10.4 mph - N/A   Mostly Cloudy
3:34 AM 71.6 °F 66.2 °F 83% 30.03 in 10.0 mi NNE 6.9 mph - N/A   Mostly Cloudy
3:53 AM 71.1 °F 66.0 °F 84% 30.04 in 10.0 mi NNE 6.9 mph - N/A   Scattered Clouds
4:11 AM 71.6 °F 66.2 °F 83% 30.03 in 10.0 mi NE 10.4 mph 20.7 mph N/A   Mostly Cloudy
4:50 AM 69.8 °F 59.0 °F 68% 30.05 in 10.0 mi NE 15.0 mph 20.7 mph N/A   Mostly Cloudy
4:53 AM 70.0 °F 59.0 °F 68% 30.05 in 10.0 mi NE 11.5 mph 20.7 mph N/A   Mostly Cloudy
5:53 AM 68.0 °F 55.9 °F 65% 30.06 in 10.0 mi NE 12.7 mph - N/A   Clear
6:53 AM 68.0 °F 55.9 °F 65% 30.08 in 10.0 mi NE 11.5 mph 20.7 mph N/A   Clear
7:53 AM 66.9 °F 55.9 °F 68% 30.12 in 10.0 mi NNE 17.3 mph 26.5 mph N/A   Clear
8:53 AM 68.0 °F 57.0 °F 68% 30.13 in 9.0 mi NE 16.1 mph 25.3 mph N/A   Scattered Clouds
9:53 AM 69.1 °F 57.9 °F 68% 30.14 in 8.0 mi NE 17.3 mph 26.5 mph N/A   Partly Cloudy
10:53 AM 70.0 °F 59.0 °F 68% 30.14 in 8.0 mi NE 18.4 mph 27.6 mph N/A   Mostly Cloudy
11:53 AM 71.1 °F 59.0 °F 66% 30.12 in 9.0 mi NNE 13.8 mph 25.3 mph N/A   Clear
12:53 PM 72.0 °F 60.1 °F 66% 30.10 in 9.0 mi NE 24.2 mph 33.4 mph N/A   Clear
1:30 PM 73.4 °F 60.8 °F 65% 30.10 in 10.0 mi NE 19.6 mph 27.6 mph N/A   Mostly Cloudy
1:43 PM 73.4 °F 60.8 °F 65% 30.10 in 9.0 mi NNE 15.0 mph 28.8 mph N/A   Mostly Cloudy
1:53 PM 73.0 °F 60.1 °F 64% 30.09 in 10.0 mi NE 18.4 mph 32.2 mph N/A   Mostly Cloudy
2:53 PM 72.0 °F 59.0 °F 64% 30.10 in 10.0 mi NNE 16.1 mph 28.8 mph N/A   Overcast
3:53 PM 72.0 °F 57.9 °F 61% 30.10 in 10.0 mi NE 18.4 mph 29.9 mph N/A   Mostly Cloudy
4:53 PM 70.0 °F 57.0 °F 63% 30.12 in 10.0 mi NE 23.0 mph 29.9 mph N/A   Mostly Cloudy
5:53 PM 69.1 °F 55.9 °F 63% 30.14 in 10.0 mi NE 18.4 mph 31.1 mph N/A   Partly Cloudy
6:53 PM 68.0 °F 54.0 °F 61% 30.16 in 10.0 mi NE 18.4 mph 33.4 mph N/A   Partly Cloudy
7:53 PM 66.9 °F 52.0 °F 59% 30.18 in 10.0 mi NE 17.3 mph 29.9 mph N/A   Clear
8:53 PM 64.9 °F 54.0 °F 68% 30.20 in 10.0 mi NE 15.0 mph 24.2 mph N/A   Clear
9:53 PM 64.0 °F 52.0 °F 65% 30.19 in 10.0 mi NE 18.4 mph 26.5 mph N/A   Clear
10:53 PM 63.0 °F 51.1 °F 65% 30.20 in 10.0 mi NE 13.8 mph 25.3 mph N/A   Clear
11:53 PM 62.1 °F 52.0 °F 70% 30.18 in 10.0 mi NE 15.0 mph - N/A   Clear